EA3E-2 Weather Reports


time (UTC)temp
C
wind
direction
speed
KPH
gust
KPH
rain 1hr
cm
rain 24hr
cm
rain mn
cm
humidity
%
barometer
mb
20260506164001 13 63 4.8 9.7 0.00 2.06 2.06 88 1011.6
20260506163101 13 79 6.4 14.5 0.00 2.06 2.06 88 1011.6
20260506161301 13 71 12.9 19.3 0.89 2.06 2.06 87 1011.4
20260506160402 13 98 14.5 24.1 1.75 2.06 2.06 87 1011.4
20260506155501 13 89 16.1 25.7 1.75 2.06 2.06 89 1011.2
20260506154601 12 90 20.9 35.4 1.75 2.06 2.06 89 1011.2
20260506153701 12 62 17.7 30.6 1.75 2.06 2.06 90 1011.0
20260506152801 11 36 16.1 33.8 1.73 2.03 2.03 89 1010.8
20260506151001 13 1 14.5 43.5 0.33 0.79 0.79 83 1010.8
20260506145201 17 149 20.9 37.0 0.00 1.07 0.33 76 1009.5
20260506144302 17 147 20.9 37.0 0.00 1.65 0.33 75 1009.6
20260506143401 17 146 20.9 45.1 0.00 1.65 0.33 76 1009.7
20260506141601 17 129 19.3 33.8 0.00 1.65 0.33 75 1009.7
20260506140701 17 133 17.7 29.0 0.00 1.65 0.33 74 1010.1
20260506135801 17 126 14.5 30.6 0.00 1.65 0.33 75 1010.2
20260506134901 17 140 14.5 24.1 0.00 1.65 0.33 76 1010.5
20260506131301 17 147 14.5 25.7 0.00 1.65 0.33 76 1010.9
20260506125501 17 146 12.9 24.1 0.00 1.65 0.33 76 1010.9
20260506124601 16 149 12.9 22.5 0.00 1.65 0.33 77 1011.1
20260506122801 16 123 9.7 20.9 0.15 1.73 0.33 78 1011.2
20260506121901 16 136 12.9 19.3 0.33 1.80 0.33 80 1011.2
20260506121001 16 142 12.9 24.1 0.33 1.80 0.33 78 1011.2
20260506115201 15 128 9.7 19.3 0.33 1.80 0.33 82 1011.2
20260506114301 15 130 11.3 16.1 0.33 1.80 0.33 84 1011.4
20260506113401 15 125 11.3 20.9 0.33 1.80 0.33 81 1011.5
20260506112501 16 125 11.3 20.9 0.03 1.50 0.03 76 1011.6
20260506111601 17 125 9.7 22.5 0.00 1.47 0.00 74 1011.1
20260506110701 17 130 11.3 20.9 0.00 1.47 0.00 73 1011.4
20260506104901 17 132 9.7 20.9 0.00 1.47 0.00 74 1011.6
20260506104001 17 154 6.4 19.3 0.00 1.47 0.00 75 1011.7
20260506103101 17 170 3.2 12.9 0.00 1.47 0.00 68 1011.6
20260506102201 18 236 1.6 12.9 0.00 1.47 0.00 70 1011.7
20260506101301 17 242 3.2 12.9 0.00 1.47 0.00 71 1011.7
20260506100401 17 244 1.6 12.9 0.00 1.47 0.00 72 1011.9
20260506095502 17 225 0.0 4.8 0.00 1.47 0.00 71 1012.0
20260506094601 16 223 3.2 9.7 0.00 1.47 0.00 71 1012.0
20260506093701 16 200 3.2 9.7 0.00 1.47 0.00 70 1012.0
20260506092801 17 224 1.6 8.0 0.00 1.47 0.00 69 1011.9
20260506091001 17 167 1.6 8.0 0.00 1.47 0.00 75 1011.7
20260506090101 16 159 1.6 8.0 0.00 1.47 0.00 74 1011.7
20260506085201 16 200 0.0 9.7 0.00 1.47 0.00 73 1011.7
20260506084301 16 0 0.0 0.0 0.00 1.47 0.00 74 1011.6
20260506083401 16 254 0.0 4.8 0.00 1.47 0.00 74 1011.5
20260506081601 15 169 1.6 8.0 0.00 1.47 0.00 77 1011.4
20260506073101 13 0 0.0 0.0 0.00 1.47 0.00 84 1011.3
20260506072201 13 222 1.6 4.8 0.00 1.47 0.00 86 1011.3
20260506071301 13 221 1.6 4.8 0.00 1.47 0.00 86 1011.2
20260506070401 12 218 1.6 4.8 0.00 1.47 0.00 85 1011.3
20260506062031 10 221 1.6 4.8 0.00 1.47 0.00 92 1011.3
20260506061131 10 208 1.6 6.4 0.00 1.47 0.00 92 1011.4
20260506060231 9 208 0.0 8.0 0.00 1.47 0.00 91 1011.3
20260506050831 9 212 6.4 8.0 0.00 1.47 0.00 91 1010.6
20260506045031 9 206 4.8 9.7 0.00 1.47 0.00 91 1010.4
20260506044131 9 214 3.2 8.0 0.00 1.47 0.00 91 1010.4
20260506043231 10 217 3.2 6.4 0.00 1.47 0.00 92 1010.4
20260506042331 9 215 3.2 8.0 0.00 1.47 0.00 92 1010.3
20260506041431 10 215 3.2 6.4 0.00 1.47 0.00 92 1010.2
20260506040531 10 213 6.4 9.7 0.00 1.47 0.00 92 1010.1
20260506033831 10 208 6.4 11.3 0.00 1.47 0.00 92 1010.3
20260506032031 10 204 6.4 9.7 0.00 1.47 0.00 91 1010.2
20260506031131 10 208 4.8 8.0 0.00 1.47 0.00 92 1010.1
20260506030231 10 219 4.8 8.0 0.00 1.47 0.00 92 1010.2
20260506025331 10 225 4.8 8.0 0.00 1.47 0.00 92 1010.2
20260506023531 10 226 0.0 8.0 0.00 1.47 0.00 92 1010.1
20260506022631 10 0 0.0 0.0 0.00 1.47 0.00 91 1010.1
20260506021731 10 0 0.0 0.0 0.00 1.47 0.00 92 1010.1
20260506020831 10 0 0.0 0.0 0.00 1.47 0.00 91 1010.1
20260506015931 10 0 0.0 0.0 0.00 1.47 0.00 91 1010.0
20260506015031 10 0 1.6 0.0 0.00 1.47 0.00 91 1010.1
20260506014131 11 226 0.0 6.4 0.00 1.47 0.00 91 1010.1
20260506013231 11 0 0.0 0.0 0.00 1.47 0.00 91 1010.1
20260506012331 11 0 0.0 0.0 0.00 1.47 0.00 92 1010.2
20260506011431 11 227 1.6 4.8 0.00 1.47 0.00 91 1010.1
20260506010531 11 228 0.0 6.4 0.00 1.47 0.00 91 1010.1
20260506005631 11 0 0.0 0.0 0.00 1.47 0.00 91 1010.2
20260506003831 11 231 3.2 9.7 0.00 1.47 0.00 91 1010.3
20260506002931 11 227 4.8 8.0 0.00 1.47 0.00 91 1010.4
20260506002031 11 231 3.2 6.4 0.00 1.47 0.00 91 1010.5
20260506001131 11 231 4.8 8.0 0.00 1.47 0.00 90 1010.5
20260506000231 11 228 4.8 8.0 0.00 1.47 0.00 90 1010.4
20260505235331 11 219 3.2 8.0 0.00 1.47 0.00 89 1010.5
20260505234431 11 211 1.6 4.8 0.00 1.47 0.00 89 1010.5
20260505233531 11 210 1.6 4.8 0.00 1.47 0.00 88 1010.7
20260505232631 11 209 1.6 4.8 0.00 1.47 0.00 87 1010.9
20260505231731 11 210 1.6 4.8 0.00 1.47 0.00 87 1010.9
20260505230831 11 229 3.2 6.4 0.00 1.47 0.00 86 1011.0
20260505225931 11 270 3.2 6.4 0.00 1.47 0.00 85 1010.9
20260505225031 11 274 3.2 6.4 0.00 1.47 0.00 83 1010.9
20260505224131 11 275 3.2 6.4 0.00 1.47 0.00 82 1010.9
20260505223231 11 281 4.8 6.4 0.00 1.47 0.00 82 1010.9
20260505222331 12 311 4.8 11.3 0.00 1.47 0.00 80 1011.1
20260505221431 12 318 8.0 12.9 0.00 1.50 0.00 80 1010.9
20260505220531 12 310 8.0 22.5 0.00 1.52 0.00 79 1011.0
20260505215631 12 319 6.4 22.5 0.00 1.68 1.60 80 1011.2
20260505214731 12 326 8.0 16.1 0.00 1.70 1.60 80 1011.3
20260505213831 12 339 6.4 19.3 0.00 1.70 1.60 80 1011.4
20260505212931 12 341 6.4 17.7 0.00 1.70 1.60 81 1011.3
20260505212031 12 342 3.2 12.9 0.00 1.70 1.60 81 1011.4
20260505211131 12 309 0.0 6.4 0.00 1.70 1.60 82 1011.5
20260505210231 12 313 0.0 3.2 0.00 1.70 1.60 83 1011.6
20260505205331 12 312 1.6 4.8 0.00 1.70 1.60 83 1011.2
20260505204431 12 300 4.8 8.0 0.00 1.70 1.60 83 1010.9
20260505203531 12 278 8.0 17.7 0.00 1.70 1.60 84 1010.9
20260505202631 12 262 9.7 17.7 0.00 1.70 1.60 85 1010.9
20260505201731 12 331 9.7 24.1 0.00 1.70 1.60 85 1010.7
20260505195931 12 318 4.8 17.7 0.00 1.70 1.60 88 1010.8
20260505195031 12 293 4.8 9.7 0.00 1.70 1.60 88 1010.8
20260505193231 12 355 4.8 9.7 0.00 1.70 1.60 88 1010.5
20260505185631 12 303 12.9 22.5 0.00 1.70 1.60 85 1010.7
20260505184731 13 7 8.0 29.0 0.00 1.70 1.60 86 1010.4
20260505182930 15 112 6.4 8.0 0.00 1.70 1.60 90 1009.5
20260505182030 15 124 8.0 14.5 0.00 1.70 1.60 90 1009.2
20260505181130 15 125 8.0 19.3 0.00 1.70 1.60 89 1009.2
20260505175330 15 112 4.8 12.9 0.00 1.70 1.60 88 1009.3
20260505173530 15 105 6.4 12.9 0.00 1.70 1.60 87 1009.2
20260505172631 15 105 6.4 16.1 0.00 1.70 1.60 87 1009.2
20260505165930 16 120 8.0 17.7 0.00 1.70 1.60 87 1009.1
20260505165031 15 124 9.7 16.1 0.00 1.70 1.60 87 1009.2